Weather History for Baudette, MN

Change the Weather History Date:

Thursday, October 11, 2012

  Actual Average Record
Temperature  
Mean Temperature 34 °F -  
Max Temperature 41 °F 55 °F 81 °F (1943)
Min Temperature 26 °F 36 °F 21 °F (1988)
Degree Days  
Heating Degree Days 32    
Moisture  
Dew Point 25 °F    
Average Humidity 71    
Maximum Humidity 89    
Minimum Humidity 53    
Precipitation  
Precipitation 0.00 in - - ()
Sea Level Pressure  
Sea Level Pressure 30.16 in    
Wind  
Wind Speed 7 mph (WNW)    
Max Wind Speed 18 mph    
Max Gust Speed 26 mph    
Visibility 10 miles    
Events      
Averages and records for this station are not official NWS values.
T = Trace of Precipitation, MM = Missing Value Source: NWS Daily Summary

Daily Weather History Graph

Daily Weather History Graph

Search for Another Location

Airport:

Trip Planner

Search our weather history database for the weather conditions in past years. The results will help you decide how hot, cold, wet, or windy it might be!

Date:

Astronomy

Oct. 11, 2012 Rise Set
Actual Time 7:33 AM CDT 6:35 PM CDT
Civil Twilight 7:01 AM CDT 7:07 PM CDT
Nautical Twilight 6:25 AM CDT 7:43 PM CDT
Astronomical Twilight 5:48 AM CDT 8:20 PM CDT
Moon 2:53 AM CDT (10/11) 4:28 PM CDT (10/11)
Length of Visible Light 12h 05m
Length of Day
11h 02m
Waning Crescent, 18% of the Moon is Illuminated
Oct 11
Waning Crescent
Oct 15
New
Oct 21
First Quarter
Oct 29
Full
Nov 6
Last Quarter

Hourly Weather History & Observations

Time (CDT) Temp. Windchill Dew Point Humidity Pressure Visibility Wind Dir Wind Speed Gust Speed Precip Events Conditions
12:53 AM 34.0 °F 31.0 °F 30.9 °F 89% 29.94 in 10.0 mi Variable 3.5 mph - N/A   Clear
1:53 AM 34.0 °F 29.8 °F 30.9 °F 89% 29.95 in 10.0 mi WNW 4.6 mph - N/A   Overcast
2:53 AM 34.0 °F 28.0 °F 28.9 °F 82% 29.96 in 10.0 mi WNW 6.9 mph - N/A   Partly Cloudy
3:53 AM 32.0 °F 27.5 °F 25.0 °F 75% 29.97 in 10.0 mi WNW 4.6 mph - N/A   Partly Cloudy
4:53 AM 32.0 °F 26.4 °F 25.0 °F 75% 30.00 in 10.0 mi WNW 5.8 mph - N/A   Scattered Clouds
5:06 AM 30.2 °F 25.4 °F 24.8 °F 80% 29.96 in 10.0 mi Variable 4.6 mph - N/A   Mostly Cloudy
5:53 AM 32.0 °F 23.6 °F 25.0 °F 75% 30.02 in 10.0 mi NW 10.4 mph 17.3 mph N/A   Mostly Cloudy
6:53 AM 33.1 °F 26.9 °F 26.1 °F 75% 30.04 in 10.0 mi WNW 6.9 mph - N/A   Overcast
7:53 AM 32.0 °F 25.6 °F 25.0 °F 75% 30.08 in 10.0 mi Variable 6.9 mph - N/A   Overcast
8:53 AM 33.1 °F 27.7 °F 26.1 °F 75% 30.10 in 10.0 mi WNW 5.8 mph - N/A   Overcast
9:53 AM 35.1 °F 24.5 °F 26.1 °F 70% 30.13 in 10.0 mi NW 18.4 mph 26.5 mph N/A   Overcast
10:53 AM 35.1 °F 25.9 °F 26.1 °F 70% 30.16 in 10.0 mi NW 13.8 mph 23.0 mph N/A   Overcast
11:53 AM 36.0 °F 26.3 °F 26.1 °F 67% 30.19 in 10.0 mi NW 16.1 mph 26.5 mph N/A   Overcast
12:53 PM 36.0 °F 28.5 °F 25.0 °F 64% 30.20 in 10.0 mi WNW 10.4 mph 19.6 mph N/A   Overcast
1:53 PM 37.9 °F 29.2 °F 26.1 °F 62% 30.22 in 10.0 mi NW 15.0 mph 21.9 mph N/A   Overcast
2:53 PM 39.0 °F 30.6 °F 26.1 °F 60% 30.22 in 10.0 mi NNW 15.0 mph 20.7 mph N/A   Overcast
3:53 PM 39.0 °F 32.8 °F 26.1 °F 60% 30.24 in 10.0 mi NW 9.2 mph - N/A   Overcast
4:53 PM 39.2 °F 34.2 °F 24.8 °F 56% 30.22 in 10.0 mi NW 6.9 mph - N/A   Overcast
5:53 PM 39.0 °F 31.4 °F 23.0 °F 53% 30.28 in 10.0 mi WNW 12.7 mph 19.6 mph 0.00 in   Overcast
6:53 PM 37.0 °F 31.0 °F 24.1 °F 59% 30.30 in 10.0 mi WNW 8.1 mph - N/A   Mostly Cloudy
7:53 PM 35.6 °F 27.5 °F 24.8 °F 65% 30.28 in 10.0 mi NW 11.5 mph 16.1 mph N/A   Partly Cloudy
8:53 PM 33.1 °F 28.7 °F 24.1 °F 70% 30.35 in 10.0 mi West 4.6 mph - N/A   Scattered Clouds
9:53 PM 30.9 °F 27.5 °F 23.0 °F 72% 30.36 in 10.0 mi West 3.5 mph - N/A   Clear
10:53 PM 28.9 °F 25.2 °F 21.9 °F 75% 30.38 in 10.0 mi West 3.5 mph - N/A   Clear
11:53 PM 26.1 °F - 19.9 °F 78% 30.39 in 10.0 mi Calm Calm - N/A   Clear